When you browse on this site, cookies collect data to enhance your experience and personalize the content and advertising you see.
Visit our Privacy Policy to learn more. By continuing to use the site, you agree to this use of cookies and data.
  • In Österreich
  • Länderverzeichnis
  • Für 7 Tage
  • Wassertemperatur
  • Wetterkarte
  • News
  • Widgets
  • user-avatar
    Anmelden

    Stündliche Wetter Yamagata

    Heute, 15 September, Sonntag

    Zeit Temperatur Niederschläge Wind Luftdruck Luftfeuchtigkeit
    00:00 +16°C° 0 mm 0 m/S 718 mmHg 97%
    01:00 +15°C° 0 mm 0 m/S 718 mmHg 97%
    02:00 +15°C° 0 mm 0 m/S 717 mmHg 97%
    03:00 +15°C° 0 mm 0 m/S 717 mmHg 96%
    04:00 +15°C° 0 mm 0 m/S 717 mmHg 96%
    05:00 +16°C° 0 mm 0 m/S 717 mmHg 95%
    06:00 +16°C° 0 mm 0 m/S 717 mmHg 95%
    07:00 +18°C° 0 mm 0 m/S 718 mmHg 86%
    08:00 +21°C° 0 mm 0 m/S 718 mmHg 78%
    09:00 +24°C° 0 mm 0 m/S 718 mmHg 69%
    10:00 +27°C° 0 mm 1 m/S 718 mmHg 65%
    11:00 +28°C° 0 mm 1 m/S 718 mmHg 62%
    12:00 +29°C° 0 mm 1 m/S 718 mmHg 58%
    13:00 +28°C° 0 mm 1 m/S 717 mmHg 61%
    14:00 +28°C° 0 mm 2 m/S 717 mmHg 64%
    15:00 +27°C° 0 mm 2 m/S 716 mmHg 66%
    16:00 +25°C° 0 mm 2 m/S 716 mmHg 75%
    17:00 +23°C° 0 mm 2 m/S 716 mmHg 83%
    18:00 +21°C° 0 mm 1 m/S 716 mmHg 91%
    19:00 +21°C° 0 mm 1 m/S 716 mmHg 93%
    20:00 +20°C° 0 mm 1 m/S 716 mmHg 94%
    21:00 +19°C° 0 mm 1 m/S 716 mmHg 96%
    22:00 +19°C° 0 mm 1 m/S 716 mmHg 97%
    23:00 +19°C° 0 mm 1 m/S 715 mmHg 97%

    Morgen, 16 September, Montag

    Zeit Temperatur Niederschläge Wind Luftdruck Luftfeuchtigkeit
    00:00 +19°C° 0 mm 1 m/S 715 mmHg 97%
    01:00 +17°C° 0.1 mm 0 m/S 715 mmHg 96%
    02:00 +17°C° 0.1 mm 0 m/S 714 mmHg 96%
    03:00 +18°C° 0.1 mm 0 m/S 714 mmHg 95%
    04:00 +18°C° 0.2 mm 0 m/S 714 mmHg 96%
    05:00 +18°C° 0.2 mm 0 m/S 714 mmHg 96%
    06:00 +18°C° 0.2 mm 0 m/S 713 mmHg 96%
    07:00 +19°C° 0.1 mm 0 m/S 713 mmHg 96%
    08:00 +19°C° 0.1 mm 0 m/S 713 mmHg 95%
    09:00 +20°C° 0.1 mm 0 m/S 713 mmHg 95%
    10:00 +22°C° 0.1 mm 0 m/S 713 mmHg 89%
    11:00 +26°C° 0.1 mm 1 m/S 712 mmHg 83%
    12:00 +28°C° 0.1 mm 1 m/S 712 mmHg 78%
    13:00 +27°C° 1.2 mm 1 m/S 712 mmHg 81%
    14:00 +27°C° 1.2 mm 1 m/S 711 mmHg 84%
    15:00 +27°C° 1.2 mm 1 m/S 711 mmHg 88%
    16:00 +26°C° 1.3 mm 1 m/S 711 mmHg 91%
    17:00 +24°C° 1.3 mm 1 m/S 711 mmHg 94%
    18:00 +23°C° 1.3 mm 2 m/S 711 mmHg 97%
    19:00 +21°C° 0.3 mm 2 m/S 711 mmHg 97%
    20:00 +21°C° 0.3 mm 2 m/S 711 mmHg 97%
    21:00 +21°C° 0.3 mm 2 m/S 712 mmHg 97%
    22:00 +20°C° 0 mm 2 m/S 712 mmHg 97%
    23:00 +20°C° 0 mm 2 m/S 712 mmHg 97%

    übermorgen, 17 September, Dienstag

    Zeit Temperatur Niederschläge Wind Luftdruck Luftfeuchtigkeit
    00:00 +20°C° 0 mm 2 m/S 712 mmHg 97%
    01:00 +20°C° 0 mm 2 m/S 712 mmHg 97%
    02:00 +19°C° 0 mm 2 m/S 713 mmHg 97%
    03:00 +19°C° 0 mm 2 m/S 713 mmHg 97%
    04:00 +19°C° 0 mm 2 m/S 714 mmHg 97%
    05:00 +19°C° 0 mm 2 m/S 714 mmHg 97%
    06:00 +20°C° 0 mm 1 m/S 715 mmHg 96%
    07:00 +20°C° 0 mm 2 m/S 716 mmHg 90%
    08:00 +23°C° 0 mm 2 m/S 716 mmHg 83%
    09:00 +25°C° 0 mm 2 m/S 717 mmHg 77%
    10:00 +25°C° 0 mm 2 m/S 717 mmHg 70%
    11:00 +26°C° 0 mm 2 m/S 717 mmHg 63%
    12:00 +27°C° 0 mm 2 m/S 717 mmHg 56%
    13:00 +27°C° 0 mm 2 m/S 718 mmHg 55%
    14:00 +27°C° 0 mm 2 m/S 718 mmHg 55%
    15:00 +26°C° 0 mm 2 m/S 718 mmHg 54%
    16:00 +24°C° 0 mm 1 m/S 718 mmHg 63%
    17:00 +22°C° 0 mm 1 m/S 718 mmHg 72%
    18:00 +19°C° 0 mm 1 m/S 718 mmHg 81%
    19:00 +19°C° 0 mm 1 m/S 718 mmHg 83%
    20:00 +16°C° 0 mm 0 m/S 718 mmHg 85%
    21:00 +15°C° 0 mm 0 m/S 718 mmHg 87%
    22:00 +15°C° 0 mm 0 m/S 718 mmHg 86%
    23:00 +15°C° 0 mm 0 m/S 718 mmHg 86%

    18 September, Mittwoch

    Zeit Temperatur Niederschläge Wind Luftdruck Luftfeuchtigkeit
    00:00 +15°C° 0 mm 0 m/S 717 mmHg 85%
    01:00 +15°C° 0 mm 0 m/S 717 mmHg 87%
    02:00 +16°C° 0 mm 0 m/S 717 mmHg 88%
    03:00 +18°C° 0 mm 1 m/S 717 mmHg 90%
    04:00 +18°C° 1.5 mm 1 m/S 717 mmHg 92%
    05:00 +16°C° 1.5 mm 0 m/S 717 mmHg 95%
    06:00 +16°C° 1.5 mm 0 m/S 717 mmHg 98%
    07:00 +16°C° 1.2 mm 0 m/S 718 mmHg 98%
    08:00 +16°C° 1.2 mm 0 m/S 718 mmHg 98%
    09:00 +16°C° 1.2 mm 0 m/S 718 mmHg 98%
    10:00 +17°C° 0.7 mm 0 m/S 718 mmHg 98%
    11:00 +17°C° 0.7 mm 0 m/S 718 mmHg 98%
    12:00 +17°C° 0.7 mm 0 m/S 718 mmHg 98%
    13:00 +17°C° 0.1 mm 0 m/S 717 mmHg 97%
    14:00 +18°C° 0.1 mm 0 m/S 717 mmHg 95%
    15:00 +18°C° 0.1 mm 0 m/S 717 mmHg 94%
    16:00 +18°C° 0 mm 0 m/S 717 mmHg 94%
    17:00 +19°C° 0 mm 1 m/S 717 mmHg 95%
    18:00 +18°C° 0 mm 1 m/S 718 mmHg 96%
    19:00 +18°C° 0 mm 1 m/S 718 mmHg 95%
    20:00 +16°C° 0 mm 1 m/S 718 mmHg 94%
    21:00 +16°C° 0 mm 1 m/S 718 mmHg 94%
    22:00 +15°C° 0 mm 1 m/S 717 mmHg 94%
    23:00 +15°C° 0 mm 1 m/S 717 mmHg 94%

    19 September, Donnerstag

    Zeit Temperatur Niederschläge Wind Luftdruck Luftfeuchtigkeit
    00:00 +14°C° 0 mm 1 m/S 717 mmHg 94%
    01:00 +14°C° 0 mm 1 m/S 717 mmHg 94%
    02:00 +13°C° 0 mm 1 m/S 717 mmHg 95%
    03:00 +13°C° 0 mm 1 m/S 717 mmHg 95%
    04:00 +13°C° 0 mm 1 m/S 717 mmHg 94%
    05:00 +13°C° 0 mm 1 m/S 717 mmHg 94%
    06:00 +14°C° 0 mm 1 m/S 717 mmHg 94%
    07:00 +15°C° 0.1 mm 1 m/S 717 mmHg 89%
    08:00 +16°C° 0.1 mm 2 m/S 718 mmHg 85%
    09:00 +17°C° 0.1 mm 2 m/S 718 mmHg 80%
    10:00 +18°C° 0.1 mm 3 m/S 718 mmHg 72%
    11:00 +19°C° 0.1 mm 4 m/S 718 mmHg 64%
    12:00 +19°C° 0.1 mm 4 m/S 718 mmHg 56%
    13:00 +19°C° 0 mm 5 m/S 718 mmHg 56%
    14:00 +17°C° 0 mm 5 m/S 718 mmHg 55%
    15:00 +17°C° 0 mm 5 m/S 718 mmHg 55%
    16:00 +15°C° 0 mm 4 m/S 718 mmHg 64%
    17:00 +13°C° 0 mm 3 m/S 718 mmHg 73%
    18:00 +13°C° 0 mm 2 m/S 718 mmHg 81%
    19:00 +12°C° 0 mm 2 m/S 718 mmHg 81%
    20:00 +12°C° 0 mm 2 m/S 719 mmHg 80%
    21:00 +10°C° 0 mm 2 m/S 719 mmHg 80%
    22:00 +10°C° 0 mm 2 m/S 719 mmHg 80%
    23:00 +10°C° 0 mm 2 m/S 719 mmHg 80%

    20 September, Freitag

    Zeit Temperatur Niederschläge Wind Luftdruck Luftfeuchtigkeit
    00:00 +10°C° 0 mm 2 m/S 719 mmHg 80%
    01:00 +10°C° 0 mm 2 m/S 719 mmHg 81%
    02:00 +9°C° 0 mm 2 m/S 719 mmHg 83%
    03:00 +9°C° 0 mm 2 m/S 719 mmHg 84%
    04:00 +10°C° 0 mm 2 m/S 719 mmHg 83%
    05:00 +10°C° 0 mm 2 m/S 720 mmHg 82%
    06:00 +12°C° 0 mm 2 m/S 720 mmHg 81%
    07:00 +13°C° 0 mm 2 m/S 720 mmHg 76%
    08:00 +15°C° 0 mm 2 m/S 720 mmHg 72%
    09:00 +17°C° 0 mm 2 m/S 721 mmHg 68%
    10:00 +18°C° 0 mm 2 m/S 721 mmHg 64%
    11:00 +18°C° 0 mm 2 m/S 721 mmHg 59%
    12:00 +19°C° 0 mm 2 m/S 721 mmHg 55%
    13:00 +19°C° 0 mm 2 m/S 721 mmHg 56%
    14:00 +20°C° 0 mm 1 m/S 721 mmHg 56%
    15:00 +20°C° 0 mm 1 m/S 721 mmHg 56%
    16:00 +19°C° 0 mm 1 m/S 721 mmHg 63%
    17:00 +16°C° 0 mm 1 m/S 721 mmHg 71%
    18:00 +13°C° 0 mm 0 m/S 721 mmHg 78%
    19:00 +13°C° 0 mm 0 m/S 721 mmHg 80%
    20:00 +13°C° 0 mm 0 m/S 722 mmHg 81%
    21:00 +12°C° 0 mm 0 m/S 722 mmHg 82%
    22:00 +12°C° 0 mm 0 m/S 722 mmHg 83%
    23:00 +12°C° 0 mm 0 m/S 722 mmHg 84%
    Mehr zeigen